Weather History for North Las Vegas, NV

Change the Weather History Date:

Tuesday, February 26, 2013

  Actual Average Record
Temperature  
Mean Temperature 47 °F -  
Max Temperature 57 °F 62 °F 84 °F (1954)
Min Temperature 37 °F 42 °F 19 °F (1952)
Degree Days  
Heating Degree Days 18    
Moisture  
Dew Point 8 °F    
Average Humidity 21    
Maximum Humidity 34    
Minimum Humidity 10    
Precipitation  
Precipitation 0.00 in - - ()
Sea Level Pressure  
Sea Level Pressure 30.20 in    
Wind  
Wind Speed 8 mph (North)    
Max Wind Speed 22 mph    
Max Gust Speed 30 mph    
Visibility 10 miles    
Events      
Averages and records for this station are not official NWS values.
T = Trace of Precipitation, MM = Missing Value Source: NWS Daily Summary

Daily Weather History Graph

Daily Weather History Graph

Search for Another Location

Airport:

Trip Planner

Search our weather history database for the weather conditions in past years. The results will help you decide how hot, cold, wet, or windy it might be!

Date:

Astronomy

Feb. 26, 2013 Rise Set
Actual Time 6:14 AM PST 5:33 PM PST
Civil Twilight 5:48 AM PST 5:58 PM PST
Nautical Twilight 5:18 AM PST 6:28 PM PST
Astronomical Twilight 4:49 AM PST 6:58 PM PST
Moon 6:50 PM PST (2/26) 6:22 AM PST (2/26)
Length of Visible Light 12h 10m
Length of Day
11h 18m
Full, 99% of the Moon is Illuminated
Feb 26
Full
Mar 4
Last Quarter
Mar 11
New
Mar 19
First Quarter
Mar 27
Full

Hourly Weather History & Observations

Time (PST) Temp. Windchill Dew Point Humidity Pressure Visibility Wind Dir Wind Speed Gust Speed Precip Events Conditions
12:53 AM 39.0 °F 34.8 °F 10.0 °F 30% 30.13 in 10.0 mi West 5.8 mph - N/A   Clear
1:53 AM 39.0 °F 36.8 °F 10.9 °F 32% 30.11 in 10.0 mi SW 3.5 mph - N/A   Clear
2:53 AM 37.9 °F 35.5 °F 10.9 °F 33% 30.11 in 10.0 mi WNW 3.5 mph - N/A   Clear
3:53 AM 37.0 °F 33.3 °F 9.0 °F 31% 30.11 in 10.0 mi WNW 4.6 mph - N/A   Clear
4:53 AM 37.0 °F - 10.9 °F 34% 30.13 in 10.0 mi Calm Calm - N/A   Clear
5:53 AM 37.0 °F 33.3 °F 10.9 °F 34% 30.15 in 10.0 mi NW 4.6 mph - N/A   Clear
6:53 AM 42.1 °F 36.6 °F 12.0 °F 29% 30.18 in 10.0 mi North 9.2 mph - N/A   Clear
7:53 AM 46.9 °F - 14.0 °F 27% 30.20 in 10.0 mi North 10.4 mph - N/A   Clear
8:53 AM 51.1 °F - 12.9 °F 22% 30.23 in 10.0 mi NNE 6.9 mph - N/A   Clear
9:53 AM 54.0 °F - 8.1 °F 16% 30.24 in 10.0 mi North 12.7 mph 20.7 mph N/A   Clear
10:53 AM 54.0 °F - 6.1 °F 15% 30.22 in 10.0 mi NNW 17.3 mph 24.2 mph N/A   Clear
11:53 AM 55.9 °F - 5.0 °F 13% 30.22 in 10.0 mi North 8.1 mph 29.9 mph N/A   Clear
12:53 PM 57.0 °F - 3.9 °F 12% 30.20 in 10.0 mi NNW 11.5 mph 25.3 mph N/A   Clear
1:53 PM 57.9 °F - 5.0 °F 12% 30.17 in 10.0 mi NW 21.9 mph - N/A   Clear
2:53 PM 57.9 °F - 3.0 °F 11% 30.17 in 10.0 mi NW 13.8 mph 20.7 mph N/A   Clear
3:53 PM 57.9 °F - 3.0 °F 11% 30.17 in 10.0 mi NNE 11.5 mph - N/A   Clear
4:53 PM 57.0 °F - 1.0 °F 10% 30.18 in 10.0 mi ENE 10.4 mph - N/A   Clear
5:53 PM 54.0 °F - 3.0 °F 13% 30.19 in 10.0 mi NW 5.8 mph - N/A   Clear
6:53 PM 50.0 °F - 6.1 °F 17% 30.23 in 10.0 mi East 5.8 mph - N/A   Clear
7:53 PM 50.0 °F - 8.1 °F 18% 30.26 in 10.0 mi ENE 9.2 mph - N/A   Clear
8:53 PM 48.9 °F - 9.0 °F 20% 30.27 in 10.0 mi ENE 12.7 mph - N/A   Clear
9:53 PM 46.9 °F - 8.1 °F 21% 30.30 in 10.0 mi East 13.8 mph - N/A   Clear
10:53 PM 45.0 °F 39.3 °F 9.0 °F 23% 30.30 in 10.0 mi East 11.5 mph - N/A   Clear
11:53 PM 43.0 °F 38.8 °F 10.0 °F 26% 30.31 in 10.0 mi East 6.9 mph - N/A   Clear